• Processing (Info)

  • MPEC 2019-R01 : 2019 QO6

    The following Minor Planet Electronic Circular may be linked-to from your own Web pages, but must not otherwise be redistributed electronically.

    A form allowing access to any MPEC is at the bottom of this page.


    Read MPEC 2019-Q153 Read MPEC 2019-R02


    M.P.E.C. 2019-R01                                Issued 2019 September 1, 04:12 UT  
    
         The Minor Planet Electronic Circulars contain information on unusual
             minor planets and routine data on comets.  They are published
        on behalf of Division F of the International Astronomical Union by the
              Minor Planet Center, Smithsonian Astrophysical Observatory,
                              Cambridge, MA 02138, U.S.A.
    
                 Prepared using the Tamkin Foundation Computer Network
    
                                  MPC@CFA.HARVARD.EDU
                URL https://www.minorplanetcenter.net/    ISSN 1523-6714
    
                                    2019 QO6                                 
    
    
    Observations:
         K19Q06O* C2019 08 28.37095 01 01 52.12 +21 16 56.7                VER001G96
         K19Q06O  C2019 08 28.37612 01 01 53.39 +21 16 58.7          21.2 GVER001G96
         K19Q06O  C2019 08 28.38126 01 01 54.63 +21 17 01.5          20.7 GVER001G96
         K19Q06O  C2019 08 28.38648 01 01 55.92 +21 17 03.6          21.4 GVER001G96
         K19Q06O  C2019 08 28.44564 01 02 10.37 +21 17 31.5          20.7 GVER001G96
         K19Q06O  C2019 08 28.44640 01 02 10.55 +21 17 31.7          20.8 GVER001G96
         K19Q06O  C2019 08 28.44828 01 02 10.99 +21 17 32.8          21.3 GVER001G96
         K19Q06O  C2019 08 28.45018 01 02 11.47 +21 17 33.5          21.0 GVER001G96
         K19Q06O KC2019 08 29.03112301 04 46.453+21 21 57.26         20.7 GVER001J04
         K19Q06O KC2019 08 29.03713501 04 47.991+21 22 00.26         20.7 GVER001J04
         K19Q06O KC2019 08 29.04314701 04 49.542+21 22 03.20         20.8 GVER001J04
         K19Q06O KC2019 08 29.30650901 05 59.40 +21 23 54.0          21.2 VuER001H21
         K19Q06O KC2019 08 29.31378701 06 01.28 +21 23 57.4          20.9 VuER001H21
         K19Q06O KC2019 08 29.32212001 06 03.43 +21 24 00.9          21.6 VuER001H21
         K19Q06O KC2019 08 29.33937 01 06 08.17 +21 24 08.2          21.1 GUER001H36
         K19Q06O KC2019 08 29.34927 01 06 10.71 +21 24 12.8          20.6 GUER001H36
         K19Q06O KC2019 08 29.35876 01 06 13.21 +21 24 17.0          20.9 GUER001H36
         K19Q06O KC2019 08 30.01908701 09 16.04 +21 28 48.3          20.3 GVER001L01
         K19Q06O KC2019 08 30.02066701 09 16.47 +21 28 49.1          20.4 GVER001L01
         K19Q06O KC2019 08 30.02303601 09 17.11 +21 28 49.3          20.6 GVER001L01
         K19Q06O pC2019 09 01.04641 01 19 18.29 +21 40 47.5          20.4 GVER001595
         K19Q06O KC2019 09 01.06226 01 19 23.09 +21 40 52.2          20.0 GVER001595
         K19Q06O KC2019 09 01.07810 01 19 27.88 +21 40 56.0          19.9 GVER001595
    
    Observer details:
    595 Farra d'Isonzo.  Observer E. Pettarin.  0.61-m f/4.5 reflector + CCD.
    G96 Mt. Lemmon Survey.  Observer D. Rankin.  Measurers B. M. Africano, E. J. 
       Christensen, G. A. Farneth, D. C. Fuls, A. R. Gibbs, A. D. Grauer, H. 
       Groeller, R. A. Kowalski, S. M. Larson, G. J. Leonard, T. A. Pruyne, D. 
       Rankin, R. L. Seaman, F. C. Shelly.  1.5-m reflector + 10K CCD.
    H21 Astronomical Research Observatory, Westfield.  Observer R. Holmes.  
        Measurers S. Foglia, L. Buzzi, T. Linder, R. Holmes.  0.76-m f/3.0 
       astrograph + CCD.
    H36 Sandlot Observatory, Scranton.  Observer G. Hug.  0.56-m reflector + CCD.
    J04 ESA Optical Ground Station, Tenerife.  Observer P. Ruiz.  Measurers M. 
       Micheli, D. Koschny, M. Busch, A. Knofel, E. Schwab.  1.0-m f/4.4 
       reflector + CCD.
    L01 Visnjan Observatory, Tican.  Observers K. Korlevic, G. Kervina, E. Pettarin,
        F. Valentine.  Measurer E. Pettarin.  1.0-m f/2.9 reflector + CCD.
    
    Orbital elements:
    2019 QO6                                                 Earth MOID = 0.0292 AU
    Epoch 2019 Apr. 27.0 TT = JDT 2458600.5                 Veres
    M 226.34596              (2000.0)            P               Q
    n   0.65328545     Peri.  259.51997     +0.21250495     -0.97714459
    a   1.3154289      Node   178.18326     +0.95051622     +0.20540527
    e   0.3681665      Incl.    9.96536     +0.22662868     +0.05474602
    P   1.51           H   22.3           G   0.15           U   8
    Residuals in seconds of arc
    190828 G96  0.2+  0.5+    190829 J04  0.0   0.0     190829 H36  0.4+  0.3-
    190828 G96  0.2+  0.1-    190829 J04  0.0   0.0     190830 L01  0.1+  0.2+
    190828 G96  0.0   0.2+    190829 J04  0.1+  0.0     190830 L01  0.2+  0.3+
    190828 G96  0.2+  0.2-    190829 H21  0.2-  0.2+    190830 L01  0.2+  0.5-
    190828 G96  0.0   0.1+    190829 H21  0.2-  0.3+    190901 595  0.3-  0.5+
    190828 G96  0.1-  0.1-    190829 H21  0.2-  0.0     190901 595  0.0   0.3+
    190828 G96  0.3-  0.2+    190829 H36  0.1-  0.5-    190901 595  0.2+  0.7-
    190828 G96  0.1-  0.0     190829 H36  0.3-  0.3-
    
    2019 QO6                                                                        
    Epoch 2019 Apr. 27.0 TT = JDT 2458600.5                 Veres                   
    M 226.34596              (2000.0)            P               Q                  
    n   0.65328545     Peri.  259.51997     +0.21250495     -0.97714459             
    a   1.3154289      Node   178.18326     +0.95051622     +0.20540527             
    e   0.3681665      Incl.    9.96536     +0.22662868     +0.05474602             
    P   1.51           H   22.3           G   0.15           U   8                  
    From 23 observations 2019 Aug. 28-Sept. 1, mean residual 0".26.                 
                                                                                    
    Ephemeris:
    2019 QO6                 a,e,i = 1.32, 0.37, 10                  q = 0.8311
    Date    TT    R. A. (2000) Decl.     Delta      r    Elong.  Phase     V
    2019 08 02    23 49 52.1 +16 12 00   0.4626  1.3270   123.4    39.7    22.8
    ...
    2019 08 17    00 23 24.3 +19 22 07   0.3260  1.2425   128.6    39.5    21.9
    ...
    2019 08 25    00 48 28.4 +20 47 45   0.2600  1.1958   130.3    40.1    21.3
    ...
    2019 08 31    01 13 58.3 +21 35 18   0.2142  1.1603   130.5    41.4    20.9
    2019 09 01    01 19 03.1 +21 40 50   0.2070  1.1544   130.4    41.8    20.8
    2019 09 02    01 24 25.8 +21 45 25   0.1998  1.1484   130.2    42.1    20.7
    ...
    2019 09 08    02 04 36.8 +21 43 56   0.1598  1.1128   127.8    45.7    20.3
    ...
    2019 09 16    03 29 32.7 +18 56 13   0.1177  1.0657   117.8    56.6    19.8
    ...
    2019 10 01    07 21 10.7 -01 26 23   0.1117  0.9810    76.3    97.3    21.0
    
                          (Last issue was M.P.E.C. 2019-Q153)                       
    
    A. U. Tomatic                (C) Copyright 2019 MPC           M.P.E.C. 2019-R01
    


    Read MPEC 2019-Q153 Read MPEC 2019-R02


    MPEC number:

    Enter an MPEC number in one of the following forms:

    • 1997-B01 (the full form)
    • J97B01 (the packed version of the full form)
    • B01 (the abbreviated form)